Ozona, TX

4:39 AM CST on February 12, 2016 (GMT -0600)
Ozona Municipal

Weather History for KOZA - May, 2013

Change the Weather History Date:

Friday, May 10, 2013

  Actual Average Record
Temperature  
Mean Temperature 65 °F -  
Max Temperature 75 °F 85 °F - (-1)
Min Temperature 55 °F 57 °F - (-1)
Growing Degree Days 15 (Base 50)    
Moisture  
Dew Point 54 °F    
Average Humidity 73    
Maximum Humidity 94    
Minimum Humidity 44    
Precipitation  
Precipitation 0.06 in - - ()
Sea Level Pressure  
Sea Level Pressure 30.04 in    
Wind  
Wind Speed 8 mph (NE)    
Max Wind Speed 24 mph    
Max Gust Speed 36 mph    
Visibility 10 miles    
Events Rain , Thunderstorm    
Averages and records for this station are not official NWS values.
T = Trace of Precipitation, MM = Missing Value Source: NWS Daily Summary

Daily Weather History Graph

Daily Weather History Graph

Search for Another Location

Airport or City:

Trip Planner

Search our weather history database for the weather conditions in past years. The results will help you decide how hot, cold, wet, or windy it might be!

Date:

Astronomy

May. 10, 2013 Rise Set
Actual Time 6:53 AM CDT 8:29 PM CDT
Civil Twilight 6:27 AM CDT 8:55 PM CDT
Nautical Twilight 5:55 AM CDT 9:27 PM CDT
Astronomical Twilight 5:22 AM CDT 10:00 PM CDT
Moon 7:19 AM CDT (5/10) 9:19 PM CDT (5/10)
Length of Visible Light 14h 28m
Length of Day
13h 36m
New Moon, 0% of the Moon is Illuminated
May 10
New Moon
May 17
First Quarter
May 24
Full
May 31
Last Quarter
Jun 8
New

Hourly Weather History & Observations

Time (CDT) Temp. Dew Point Humidity Pressure Visibility Wind Dir Wind Speed Gust Speed Precip Events Conditions
12:15 AM 64.4 °F 55.4 °F 73% 29.96 in 10.0 mi East 3.5 mph - N/A   Clear
12:55 AM 64.4 °F 55.4 °F 73% 29.96 in 10.0 mi Calm Calm - N/A Thunderstorm Thunderstorm
1:35 AM 62.6 °F 59.0 °F 88% 29.98 in 10.0 mi WNW 8.1 mph - 0.01 in Thunderstorm Thunderstorm
1:55 AM 64.4 °F 60.8 °F 88% 29.96 in 5.0 mi WSW 8.1 mph - 0.03 in Rain , Thunderstorm Rain
2:15 AM 66.2 °F 62.6 °F 88% 29.94 in 10.0 mi East 6.9 mph 19.6 mph 0.01 in Rain , Thunderstorm Rain
2:35 AM 62.6 °F 59.0 °F 88% 29.94 in 10.0 mi SSE 18.4 mph 29.9 mph 0.02 in Rain , Thunderstorm Thunderstorms and Rain
2:55 AM 60.8 °F 55.4 °F 82% 29.96 in 10.0 mi South 19.6 mph 32.2 mph 0.03 in Rain , Thunderstorm Light Thunderstorms and Rain
3:15 AM 59.0 °F 53.6 °F 82% 29.94 in 10.0 mi South 16.1 mph 21.9 mph N/A Rain Light Rain
3:35 AM 59.0 °F 53.6 °F 82% 29.98 in 10.0 mi Calm Calm - N/A Thunderstorm Clear
3:55 AM 60.8 °F 53.6 °F 77% 29.94 in 10.0 mi NE 3.5 mph - N/A Thunderstorm Clear
4:35 AM 59.0 °F 53.6 °F 82% 29.94 in 10.0 mi South 3.5 mph - N/A   Clear
4:55 AM 57.2 °F 53.6 °F 88% 29.97 in 10.0 mi North 10.4 mph - N/A   Clear
5:15 AM 59.0 °F 53.6 °F 82% 29.98 in 10.0 mi Calm Calm - N/A   Clear
5:35 AM 57.2 °F 53.6 °F 88% 29.98 in 10.0 mi ESE 3.5 mph - N/A   Clear
5:55 AM 57.2 °F 53.6 °F 88% 29.98 in 10.0 mi Calm Calm - N/A   Clear
6:15 AM 55.4 °F 53.6 °F 94% 29.98 in 10.0 mi Calm Calm - N/A   Clear
6:35 AM 55.4 °F 53.6 °F 94% 29.98 in 10.0 mi NNE 5.8 mph - N/A   Clear
7:15 AM 55.4 °F 53.6 °F 94% 30.01 in 10.0 mi NNE 4.6 mph - N/A   Clear
7:35 AM 57.2 °F 55.4 °F 94% 30.02 in 10.0 mi Calm Calm - N/A   Clear
8:15 AM 62.6 °F 55.4 °F 77% 30.03 in 10.0 mi NE 6.9 mph - N/A   Clear
8:55 AM 64.4 °F 55.4 °F 73% 30.03 in 10.0 mi ENE 6.9 mph - N/A   Clear
9:35 AM 68.0 °F 55.4 °F 64% 30.04 in 10.0 mi NE 10.4 mph - N/A   Clear
9:55 AM 69.8 °F 53.6 °F 56% 30.04 in 10.0 mi ENE 11.5 mph - N/A   Clear
10:35 AM 71.6 °F 53.6 °F 53% 30.04 in 10.0 mi ENE 12.7 mph 17.3 mph N/A   Clear
10:55 AM 71.6 °F 53.6 °F 53% 30.04 in 10.0 mi NNE 10.4 mph 16.1 mph N/A   Clear
11:15 AM 73.4 °F 51.8 °F 47% 30.04 in 10.0 mi NE 8.1 mph - N/A   Clear
11:35 AM 75.2 °F 51.8 °F 44% 30.05 in 10.0 mi East 10.4 mph - N/A   Clear
12:35 PM 75.2 °F 51.8 °F 44% 30.04 in 10.0 mi East 11.5 mph - N/A   Clear
12:55 PM 75.2 °F 51.8 °F 44% 30.04 in 10.0 mi ENE 9.2 mph - N/A   Clear
2:15 PM 75.2 °F 51.8 °F 44% 30.04 in 10.0 mi East 6.9 mph - N/A   Clear
2:35 PM 73.4 °F 53.6 °F 50% 30.04 in 10.0 mi ESE 4.6 mph - N/A   Clear
3:15 PM 75.2 °F 51.8 °F 44% 30.04 in 10.0 mi West 6.9 mph - N/A   Clear
4:35 PM 68.0 °F 53.6 °F 60% 30.04 in 10.0 mi NNE 24.2 mph 35.7 mph N/A   Clear
5:15 PM 62.6 °F 53.6 °F 72% 30.05 in 10.0 mi NNE 19.6 mph 27.6 mph N/A   Clear
5:35 PM 64.4 °F 55.4 °F 73% 30.06 in 10.0 mi NNE 15.0 mph - N/A   Clear
5:55 PM 64.4 °F 53.6 °F 68% 30.07 in 10.0 mi North 19.6 mph - N/A   Clear
6:15 PM 64.4 °F 53.6 °F 68% 30.05 in 10.0 mi NE 15.0 mph - N/A   Clear
6:55 PM 64.4 °F 55.4 °F 73% 30.02 in 10.0 mi NE 16.1 mph 21.9 mph N/A   Clear
7:15 PM 64.4 °F 55.4 °F 73% 30.03 in 10.0 mi NNE 16.1 mph 20.7 mph N/A   Clear
7:35 PM 64.4 °F 53.6 °F 68% 30.03 in 10.0 mi NE 15.0 mph 21.9 mph N/A   Clear
7:55 PM 62.6 °F 53.6 °F 72% 30.05 in 10.0 mi NNE 8.1 mph 12.7 mph N/A   Clear
8:15 PM 62.6 °F 53.6 °F 72% 30.08 in 10.0 mi North 11.5 mph 17.3 mph N/A   Clear
8:35 PM 62.6 °F 53.6 °F 72% 30.09 in 10.0 mi NNE 13.8 mph - N/A   Clear
9:15 PM 60.8 °F 53.6 °F 77% 30.11 in 10.0 mi East 5.8 mph - N/A   Clear
9:35 PM 60.8 °F 53.6 °F 77% 30.13 in 10.0 mi NE 3.5 mph - N/A   Clear
9:55 PM 60.8 °F 53.6 °F 77% 30.15 in 10.0 mi North 4.6 mph - N/A   Clear
10:15 PM 60.8 °F 53.6 °F 77% 30.16 in 10.0 mi Calm Calm - N/A   Clear
10:35 PM 60.8 °F 53.6 °F 77% 30.18 in 10.0 mi NNW 4.6 mph - N/A   Clear
10:55 PM 60.8 °F 53.6 °F 77% 30.19 in 10.0 mi NNW 10.4 mph - N/A   Scattered Clouds
11:15 PM 60.8 °F 53.6 °F 77% 30.18 in 10.0 mi North 6.9 mph - N/A   Light Drizzle
11:35 PM 60.8 °F 53.6 °F 77% 30.17 in 10.0 mi NNE 8.1 mph - N/A   Clear
11:55 PM 59.0 °F 53.6 °F 82% 30.17 in 10.0 mi East 4.6 mph - N/A   Clear